GSAT0201 (GALILEO 5)

Last updated on Sun Apr 12 2026 00:02:39 GMT+0000 (Coordinated Universal Time)

1 40128U 14050A 26099.96574208 -.00000008 00000+0 00000+0 0 9999 2 40128 48.9510 276.2282 1663671 176.7294 184.5145 1.85520144 77056
UTC large
Height (km)
Speed (km/s)
/
Latitude / Longitude
Inclination (degrees)
Orbital Period (minutes)
Azimuth
Elevation
Range (km)
Doppler Factor

Next 0 passes for location: London (51.5072 / 0.1276)

Sorry there are no passes over London.